TimeEST,TemperatureF,Dew PointF,Humidity,Sea Level PressureIn,VisibilityMPH,Wind Direction,Wind SpeedMPH,Gust SpeedMPH,PrecipitationIn,Events,Conditions,WindDirDegrees,DateUTC
12:06 AM,42.8,39.2,87,30.12,2.0,Calm,Calm,-,N/A,,Clear,0,2012-12-28 05:06:00
12:25 AM,41.0,39.2,93,30.11,2.0,Calm,Calm,-,N/A,,Clear,0,2012-12-28 05:25:00
12:34 AM,41.0,39.2,93,30.11,8.0,Calm,Calm,-,N/A,,Clear,0,2012-12-28 05:34:00
12:53 AM,43.0,39.9,89,30.10,4.0,Calm,Calm,-,N/A,,Clear,0,2012-12-28 05:53:00
1:04 AM,42.8,39.2,87,30.11,1.0,SW,3.5,-,N/A,,Mist,230,2012-12-28 06:04:00
1:13 AM,41.0,39.2,93,30.11,0.8,Calm,Calm,-,N/A,,Clear,0,2012-12-28 06:13:00
1:20 AM,39.2,39.2,100,30.11,2.0,Calm,Calm,-,N/A,,Clear,0,2012-12-28 06:20:00
1:27 AM,41.0,39.2,93,30.10,1.2,Calm,Calm,-,N/A,,Partly Cloudy,0,2012-12-28 06:27:00
1:34 AM,39.2,39.2,100,30.10,3.0,Calm,Calm,-,N/A,,Clear,0,2012-12-28 06:34:00
1:46 AM,41.0,39.2,93,30.10,5.0,Calm,Calm,-,N/A,,Partly Cloudy,0,2012-12-28 06:46:00
1:53 AM,41.0,39.9,96,30.10,6.0,Calm,Calm,-,N/A,,Clear,0,2012-12-28 06:53:00
2:09 AM,41.0,39.2,93,30.10,2.0,Calm,Calm,-,N/A,,Clear,0,2012-12-28 07:09:00
2:19 AM,41.0,39.2,93,30.10,6.0,Calm,Calm,-,N/A,,Clear,0,2012-12-28 07:19:00
2:53 AM,42.1,39.9,92,30.11,4.0,Calm,Calm,-,N/A,,Clear,0,2012-12-28 07:53:00
2:59 AM,41.0,39.2,93,30.10,1.8,Calm,Calm,-,N/A,,Clear,0,2012-12-28 07:59:00
3:09 AM,42.8,39.2,87,30.10,0.8,Calm,Calm,-,N/A,,Clear,0,2012-12-28 08:09:00
3:17 AM,41.0,39.2,93,30.10,0.8,Calm,Calm,-,N/A,,Mist,0,2012-12-28 08:17:00
3:53 AM,42.1,41.0,96,30.11,0.2,NNW,3.5,-,N/A,Fog,Fog,340,2012-12-28 08:53:00
4:12 AM,41.0,41.0,100,30.10,2.0,Calm,Calm,-,N/A,,Mostly Cloudy,0,2012-12-28 09:12:00
4:15 AM,41.0,41.0,100,30.10,3.0,North,3.5,-,N/A,,Scattered Clouds,10,2012-12-28 09:15:00
4:53 AM,41.0,39.9,96,30.09,5.0,Calm,Calm,-,N/A,,Clear,0,2012-12-28 09:53:00
6:53 AM,39.9,37.9,93,30.10,7.0,Calm,Calm,-,N/A,,Clear,0,2012-12-28 11:53:00
7:53 AM,39.0,39.0,100,30.12,6.0,Calm,Calm,-,0.01,,Clear,0,2012-12-28 12:53:00
8:53 AM,48.0,43.0,83,30.13,10.0,NNE,3.5,-,N/A,,Clear,30,2012-12-28 13:53:00
9:53 AM,54.0,44.1,69,30.14,10.0,ENE,3.5,-,N/A,,Clear,70,2012-12-28 14:53:00
10:53 AM,57.9,43.0,58,30.12,10.0,Variable,4.6,-,N/A,,Clear,0,2012-12-28 15:53:00
11:53 AM,60.1,42.1,51,30.11,10.0,Calm,Calm,-,N/A,,Clear,0,2012-12-28 16:53:00
12:53 PM,64.0,43.0,46,30.05,10.0,SE,3.5,-,N/A,,Clear,130,2012-12-28 17:53:00
1:53 PM,66.0,44.1,45,30.02,10.0,SSE,5.8,-,N/A,,Clear,150,2012-12-28 18:53:00
2:53 PM,68.0,45.0,43,30.00,10.0,SSE,5.8,-,N/A,,Scattered Clouds,150,2012-12-28 19:53:00
3:53 PM,68.0,46.9,47,29.99,10.0,SSE,4.6,-,N/A,,Scattered Clouds,150,2012-12-28 20:53:00
4:53 PM,68.0,48.0,49,29.98,10.0,SSE,10.4,-,N/A,,Overcast,150,2012-12-28 21:53:00
5:53 PM,66.0,51.1,59,29.98,10.0,SSE,4.6,-,N/A,,Overcast,160,2012-12-28 22:53:00
6:53 PM,64.9,52.0,63,29.98,10.0,ESE,3.5,-,N/A,,Overcast,120,2012-12-28 23:53:00
7:53 PM,66.0,53.1,63,29.99,10.0,SSE,4.6,-,N/A,,Overcast,150,2012-12-29 00:53:00
8:23 PM,64.4,55.4,73,30.01,6.0,SW,3.5,-,0.00,Rain,Light Rain,230,2012-12-29 01:23:00
8:53 PM,61.0,57.0,87,30.00,6.0,Calm,Calm,-,0.04,Rain,Light Rain,0,2012-12-29 01:53:00
9:13 PM,60.8,57.2,88,30.00,2.5,Calm,Calm,-,0.04,Rain,Rain,0,2012-12-29 02:13:00
9:27 PM,60.8,57.2,88,30.00,3.0,Calm,Calm,-,0.07,Rain,Light Rain,0,2012-12-29 02:27:00
9:53 PM,61.0,59.0,93,30.00,4.0,Calm,Calm,-,0.08,Rain,Light Rain,0,2012-12-29 02:53:00
10:20 PM,60.8,60.8,100,29.99,2.5,ESE,5.8,-,0.03,Rain,Rain,120,2012-12-29 03:20:00
10:53 PM,62.1,61.0,96,29.97,3.0,SE,5.8,-,0.07,Rain,Light Rain,130,2012-12-29 03:53:00
11:53 PM,63.0,62.1,97,29.94,5.0,SSE,4.6,-,0.00,,Overcast,150,2012-12-29 04:53:00
11:59 PM,62.6,62.6,100,29.93,5.0,SSE,5.8,-,N/A,,Overcast,150,2012-12-29 04:59:00